Погода в Ташкенте

Турция     36°55′13″N   32°29′32″E
темп.,
°C
ветер,
м/с
пор.,
м/с
влажн.,
%
обл.,
%
осадки,
мм/ч
давл.,
гПа
погр.,
м
19 апреля, пн
пн1900:00+14ю2241100 0.0 101924
03:00+12ю1242100 0.0 101814
06:00+13ююв5538100 0.0 101660
09:00+17юв4734100 0.0 1015479
12:00+22ююз8152030 0.0 10143111
15:00+22ююз81719100 0.0 10122888
18:00+19ююз717265 0.0 10112345
21:00+16ююз6133130 0.0 1012305
20 апреля, вт
вт2000:00+15ююз7163757 0.0 1011469
03:00+14ююз6124227 0.0 1010263
06:00+14ю7134181 0.0 1009396
09:00+16ююз8163037 0.0 10091101
12:00+18ююз92016100 0.0 10091653
15:00+18юз11181398 0.0 10081420
18:00+15юз6131569 0.0 1009881
21:00+9ююз32320 0.0 101323
21 апреля, ср
ср2100:00+8ююз22260 0.0 101315
03:00+6с22390 0.0 101413
06:00+4ссз22630 0.0 101713
09:00+7ссв21550 0.0 1017509
12:00+13в14280 0.0 10141442
15:00+16юз35250 0.0 10131963
18:00+14юз4330100 0.0 10131214
21:00+10ююз22491 0.0 101625
22 апреля, чт
чт2200:00+9зюз11555 0.0 101712
03:00+7сз22670 0.0 101715
06:00+6ссз226921 0.0 101810
09:00+9св11522 0.0 1019597
12:00+13св23385 0.0 10181767
15:00+15ссв543692 0.0 10162024
18:00+15св323668 0.0 10161951
21:00+11ссв34495 0.0 101987
23 апреля, пт
пт2300:00+9сз22563 0.0 102018
03:00+7сз11610 0.0 101910
06:00+6юз006247 0.0 101910
09:00+11в114610 0.0 1019417
12:00+16всв13315 0.0 10171692
15:00+19с232849 0.0 10152166
18:00+18с3330100 0.0 10161728
21:00+14ссз2248100 0.0 101919